Regional Weather Roundup
Issued by NWS

Home | Current Version | Previous Version | Graphics & Text | Print | Product List | Glossary On
Versions: 1 2 3 4 5 6 7 8 9 10 11 12 13 14 15 16 17 18 19 20 21 22 23 24 25 26 27 28 29 30 31 32 33 34 35 36 37 38 39 40 41 42 43 44 45 46 47 48 49 50
000
ASUS45 KPSR 050910
RWRAZ

ARIZONA HOURLY REGIONAL WEATHER ROUNDUP
NATIONAL WEATHER SERVICE PHOENIX AZ
200 AM MST SAT SEP 05 2015

NOTE: FAIR INDICATES FEW OR NO CLOUDS BELOW 12,000 FEET WITH NO
SIGNIFICANT WEATHER AND/OR OBSTRUCTIONS TO VISIBILITY.

AZZ001>003-036-051000-
NORTHWEST ARIZONA

CITY           SKY/WX    TMP DP  RH WIND       PRES   REMARKS
BULLHEAD CITY  CLEAR     88  52  29 SE24      29.75R
KINGMAN        CLEAR     74  52  46 S14       29.95R
$$

AZZ004>008-015-016-018-051000-
NORTH CENTRAL ARIZONA

CITY           SKY/WX    TMP DP  RH WIND       PRES   REMARKS
GRAND CANYON   PTCLDY    57  50  77 SW8       30.16S
WILLIAMS       PTCLDY    59  50  72 S8G15     30.22S
PRESCOTT       MOCLDY    65  54  67 SE7       30.08S
FLAGSTAFF      LGT RAIN  55  54  96 SW7       30.21R
PAYSON         MOCLDY    64  57  77 CALM      30.11F
PAGE           PTCLDY    72  49  44 S6        29.97R
$$

AZZ009>014-017-051000-
NORTHEAST ARIZONA

CITY           SKY/WX    TMP DP  RH WIND       PRES   REMARKS
WINSLOW        CLOUDY    63  59  87 CALM      30.08S
SAINT JOHNS    CLOUDY    63  57  81 NE3       30.13S
WINDOW ROCK    CLOUDY    60  53  77 SW6       30.20R
SHOW LOW       CLOUDY    57  54  88 SW8       30.18F
$$

AZZ023-051000-
GREATER PHOENIX AREA

CITY           SKY/WX    TMP DP  RH WIND       PRES   REMARKS
PHOENIX        MOCLDY    83  65  54 SE7       29.83S
BUCKEYE        CLOUDY    77  68  73 E5        29.83F
LUKE AFB       MOCLDY    82  63  52 CALM      29.83S
DEER VALLEY    PTCLDY    81  63  54 E5        29.85F
SCOTTSDALE     MOCLDY    81  65  58 SE3       29.87F
MESA-GATEWAY   MOCLDY    77  64  65 SE3       29.88S
$$

AZZ027-028-051000-
SOUTHWEST MARICOPA COUNTY AND PINAL COUNTY

CITY           SKY/WX    TMP DP  RH WIND       PRES   REMARKS
CASA GRANDE    MOCLDY    75  66  73 CALM      29.86S
GILA BEND      FAIR      80  65  58 SE7       29.81S
$$

AZZ503-504-507>509-051000-
SOUTHEAST ARIZONA

CITY           SKY/WX    TMP DP  RH WIND       PRES   REMARKS
TUCSON         CLOUDY    73  64  73 SE7       29.95S
DAVIS-MONTHAN  MOCLDY    72  64  76 S7        29.94R
NOGALES        CLOUDY    66  62  87 E5        30.02S
SIERRA VISTA   CLOUDY    64  63  94 SE2       30.08S
DOUGLAS        CLOUDY    65  64  97 NE5       30.04F
SAFFORD        MOCLDY    69  64  84 SE3       29.98F
$$

AZZ020-021-025-026-031-051000-
SOUTHWEST ARIZONA

CITY           SKY/WX    TMP DP  RH WIND       PRES   REMARKS
YUMA           MOCLDY    83  74  74 SE9       29.76S
$$

CAZ031-033-041-043-047-048-061-051000-
SOUTHERN CALIFORNIA

CITY           SKY/WX    TMP DP  RH WIND       PRES   REMARKS
DOWNTOWN L.A.  CLEAR     68  59  73 E3        29.87S
L.A. AIRPORT   CLEAR     67  60  78 SE5       29.87S
SAN DIEGO      CLOUDY    70  59  68 CALM      29.89S
BURBANK        CLEAR     67  56  67 CALM      29.88S
ONTARIO        CLEAR     64  56  75 SW5       29.89S
RIVERSIDE      CLEAR     64  56  75 CALM      29.89S
PALM SPRINGS   CLEAR     74  52  46 CALM      29.79S
EL CENTRO NAS  CLEAR     80  66  62 NW6       29.75S
IMPERIAL       CLEAR     86  69  56 CALM      29.73R
BLYTHE         CLEAR     84  69  60 SW8       29.77S
NEEDLES        CLEAR     87  53  31 SW18      29.77S
$$

NVZ020-UTZ003-051000-
SOUTHERN NEVADA-UTAH

CITY           SKY/WX    TMP DP  RH WIND       PRES   REMARKS
LAS VEGAS      CLEAR     79  32  18 SW10      29.77S
SALT LAKE CITY PTCLDY    75  42  30 S20G28    29.81S
$$

NMZ009-TXZ055-051000-
NEW MEXICO-WEST TEXAS

CITY           SKY/WX    TMP DP  RH WIND       PRES   REMARKS
ALBUQUERQUE    MOCLDY    65  57  75 E6        30.14F
EL PASO        MOCLDY    76  55  48 N10       30.00F
$$


........................KEY........................
SKY/WX - SKY CONDITION/WEATHER
TMP    - TEMPERATURE IN FAHRENHEIT
DP     - DEW POINT IN FAHRENHEIT
RH     - RELATIVE HUMIDITY IN PERCENT
WIND   - DIRECTION AND SPEED IN MILES PER HOUR (MPH)
VRB    - VARIABLE WIND DIRECTION
PRES   - MEAN SEA LEVEL PRESSURE IN INCHES OF MERCURY
         F - FALLING PRESSURE   R - RISING PRESSURE
         S - STEADY PRESSURE
VSB    - VISIBILITY IN MILES
HX     - HEAT INDEX IN FAHRENHEIT
WCI    - WIND CHILL INDEX IN FAHRENHEIT
TC     - TEMPERATURE IN CELSIUS WHICH IS ALSO KNOWN AS
         TEMPERATURE IN CENTIGRADE
AFB    - AIR FORCE BASE
         LUKE AFB IS LUKE AIR FORCE BASE
         DAVIS-MONTHAN IS DAVIS-MONTHAN AIR FORCE BASE
NAS    - NAVAL AIR STATION
         EL CENTRO NAS IS EL CENTRO NAVAL AIR STATION
N/A    - NOT AVAILABLE




USA.gov is the U.S. government's official web portal to all federal, state and local government web resources and services.